Погода в Ромахове

Россия / Белгородская область     50°22′07″N   38°32′46″E
темп.,
°C
ветер,
м/с
пор.,
м/с
влажн.,
%
обл.,
%
осадки,
мм/ч
давл.,
гПа
погр.,
м
17 октября, вс
вс1700:00+11св2258100 0.0 101822
03:00+11ссв2261100 0.0 101747
06:00+10св2266100 0.0 101752
09:00+11ссв246197 0.0 1017204
12:00+14ссв225185 0.0 1017530
15:00+15ссз224786 0.0 1016802
18:00+12ссз225284 0.0 101612
21:00+9с22695 0.0 101721
18 октября, пн
пн1800:00+8ссз22765 0.0 101718
03:00+6ссз338225 0.0 101734
06:00+5сз338343 0.0 101750
09:00+7сз347398 0.0 1017241
12:00+11зсз455150 0.0 10171080
15:00+12зсз564498 0.0 10151497
18:00+8зсз355398 0.0 1016106
21:00+7з3757100 0.0 1016214
19 октября, вт
вт1900:00+7зсз4675100 0.1 1016803
03:00+6зюз4687100 0.9 1015935
06:00+7з4684100 0.3 10151038
09:00+6зсз5785100 0.4 10151043
12:00+7с476381 0.1 10161146
15:00+10ссз673512 0.1 10162201
18:00+5сз49495 0.0 1018168
21:00+4сз59715 0.0 1020382
20 октября, ср
ср2000:00+2сз4107495 0.0 1021377
03:00+2сз598010 0.2 1022455
06:000сз499129 0.0 1024418
09:00+2сз58725 0.0 1026543
12:00+6сз454655 0.0 10261331
15:00+7зсз554260 0.0 10251435
18:00+3зсз3357100 0.0 102742
21:00+3зюз3361100 0.0 102638
21 октября, чт
чт2100:00+2ююз336496 0.0 102642
03:00+2юз376499 0.0 1025145
06:00+2ююз4106692 0.0 1024210
09:00+5юз6125693 0.0 1024415
12:00+11юз8113492 0.0 1022829
15:00+12юз7112862 0.0 10201021
18:00+10ююз61434100 0.0 1018450
21:00+9юз71640100 0.0 1017496